Location: Santa Teresa Spring
(37.2333°N, 121.7000°W)
Time: 21:59:06
(UTC-08:00)

ISS - Visible Passes

Search period start: 17 December 2014 00:00
Search period end: 27 December 2014 00:00
Orbit: 404 x 415 km, 51.6° (Epoch: 18 December)

Date Brightness Start Highest point End Pass type
(mag) Time Alt. Az. Time Alt. Az. Time Alt. Az.
21 Dec -0.9 18:02:48 10° N 18:03:25 11° NNE 18:03:25 11° NNE visible
22 Dec -0.7 18:47:04 10° NNW 18:47:38 14° NNW 18:47:38 14° NNW visible
23 Dec -1.6 17:56:30 10° NNW 17:58:50 18° NNE 17:59:12 18° NE visible
24 Dec -2.4 18:41:25 10° NW 18:43:42 40° NNW 18:43:42 40° NNW visible
25 Dec -2.6 17:50:33 10° NW 17:53:36 35° NE 17:55:39 17° E visible
25 Dec -0.2 19:27:30 10° W 19:28:28 15° W 19:28:28 15° W visible
26 Dec -2.0 18:35:56 10° WNW 18:39:02 40° SW 18:40:49 21° SSE visible
